Flag for Germany Weather past 2 weeks in Haltern am See, North Rhine-Westphalia, Germany

Now
70 °F

Sunny.


Feels Like: 70 °F
Forecast: 61 / 77 °F
Wind: 2 mph from North

Location: Dortmund / Wickede

Current Time: Jul 5, 2015 at 7:25:37 AM

Latest Report: Jul 5, 2015 at 6:50 AM


Visibility: 10 mi

Pressure: 30.07 "Hg

Humidity: 64%

Dew point: 57 °F

Location of Haltern am SeeLocation

Historic Weather in Haltern am See — Graph

°F

Haltern am See temperature yesterday

Maximum temperature yesterday: 95 °F (at 2:50 PM)
Minimum temperature yesterday: 70 °F (at 5:20 AM)
Average temperature yesterday: 87 °F

Past Weeks' High & Low Weather Summary

 TemperatureHumidityPressure
High97 °F (Jul 2, 2:50 PM)94% (Jun 20, 6:20 AM)30.24 "Hg (Jun 20, 6:20 AM)
Low48 °F (Jun 20, 6:20 AM)22% (Jul 2, 3:20 PM)29.68 "Hg (Jun 22, 7:50 PM)
Average68 °F59%30.07 "Hg
* Reported Jun 20 6:20 AM — Jul 5 6:20 AM, Haltern am See, Weather by CustomWeather, © 2015

Note: Actual official high and low records may vary slightly from our data, if they occured in-between our weather recording intervals... More about our weather records

Advertising

Haltern am See weather history for previous 24 hours

 ConditionsComfort  
Time TempWeatherWind HumidityBarometerVisibility
6:20 AM
Sun, Jul 5
68 °FSunny.3 mph64%30.07 "Hg10 mi
5:50 AM68 °FClear.2 mph69%30.09 "Hg10 mi
5:20 AM66 °FClear.2 mph68%30.09 "Hg10 mi
10:50 PM
Sat, Jul 4
79 °FClear.3 mph42%30.09 "Hg10 mi
10:20 PM79 °FPassing clouds.8 mph58%30.09 "HgN/A
9:50 PM81 °FSunny.1 mph51%30.07 "Hg10 mi
9:20 PM84 °FSunny.2 mph43%30.07 "Hg10 mi
8:50 PM84 °FSunny.3 mph43%30.07 "Hg10 mi
8:20 PM88 °FSunny.3 mph33%30.07 "Hg10 mi
7:50 PM91 °FPassing clouds.6 mph30%30.07 "HgN/A
7:20 PM93 °FPassing clouds.7 mph28%30.07 "HgN/A
6:50 PM93 °FSunny.6 mph28%30.07 "Hg10 mi
6:20 PM93 °FSunny.9 mph24%30.07 "Hg10 mi
5:50 PM95 °FSunny.8 mph26%30.07 "Hg10 mi
5:20 PM95 °FSunny.8 mph28%30.07 "Hg10 mi
4:50 PM95 °FSunny.8 mph28%30.07 "Hg10 mi
4:20 PM95 °FSunny.12 mph32%30.07 "Hg10 mi
3:50 PM95 °FSunny.9 mph32%30.07 "Hg10 mi
3:20 PM93 °FSunny.10 mph30%30.07 "Hg10 mi
2:50 PM95 °FSunny.10 mph30%30.07 "Hg10 mi
2:20 PM93 °FSunny.9 mph32%30.07 "Hg10 mi
1:50 PM93 °FPassing clouds.10 mph32%30.07 "HgN/A
1:20 PM93 °FPassing clouds.12 mph30%30.07 "HgN/A
12:50 PM93 °FPassing clouds.13 mph32%30.07 "HgN/A
12:20 PM93 °FPassing clouds.14 mph30%30.07 "HgN/A
11:50 AM91 °FPassing clouds.10 mph34%30.07 "HgN/A
11:20 AM91 °FPassing clouds.10 mph34%30.07 "HgN/A
10:50 AM90 °FPassing clouds.9 mph38%30.07 "HgN/A
10:20 AM90 °FPassing clouds.6 mph33%30.07 "HgN/A
9:50 AM90 °FPassing clouds.5 mph41%30.07 "HgN/A
9:20 AM86 °FPassing clouds.6 mph49%30.07 "HgN/A
8:50 AM82 °FPassing clouds.5 mph55%30.07 "HgN/A
8:20 AM79 °FSunny.5 mph61%30.07 "Hg10 mi
7:50 AM77 °FSunny.3 mph65%30.07 "Hg10 mi
7:20 AM73 °FSunny.3 mph78%30.07 "Hg10 mi
Weather by CustomWeather, © 2015

See weather overviewHow to use our weather pages